Regional Weather Roundup
Issued by NWS Green Bay, WI

Home | Current Version | Previous Version | Graphics & Text | Print | Product List | Glossary Off
Versions: 1 2 3 4 5 6 7 8 9 10 11 12 13 14 15 16 17 18 19 20 21 22 23 24 25 26 27 28 29 30 31 32 33 34 35 36 37 38 39 40 41 42 43 44 45 46 47 48 49 50

000
ASUS43 KGRB 291811
RWRGRB

NORTH-CENTRAL AND NORTHEAST WISCONSIN REGIONAL WEATHER ROUNDUP
NATIONAL WEATHER SERVICE GREEN BAY WI
100 PM CDT WED JUL 29 2015

WIZ005-009-010>012-018-019-291900-
NORTH CENTRAL WISCONSIN

CITY           SKY/WX    TMP DP  RH WIND       PRES   REMARKS
IRONWOOD       CLOUDY    72  54  53 W28G36    29.76F
MANITOWISH WTR CLOUDY    72  53  51 W25G36    29.83R
ARBOR VITAE    MOSUNNY   77  56  48 W15G29    29.83
EAGLE RIVER    MOSUNNY   76  49  39 W20G30    29.82R
LAND O LAKES   PTSUNNY   74  50  42 W16G28    29.82R
RHINELANDER    MOSUNNY   79  51  37 W23G33    29.84S
PHILLIPS         N/A     75  54  49 W16G29    29.85R
ANTIGO         SUNNY     78  52  40 W22G30    29.86F
TOMAHAWK       SUNNY     77  52  42 W17G29    29.86R
MERRILL        NOT AVBL
$$

WIZ013-073-291900-
NORTHEAST WISCONSIN

CITY           SKY/WX    TMP DP  RH WIND       PRES   REMARKS
IRON MOUNTAIN  SUNNY     81  51  35 SW15G29   29.78F
MARINETTE      SUNNY     81  52  36 W13G22    29.80F
OCONTO         SUNNY     83  52  34 W17G31    29.83F
$$

WIZ017-030-035>037-045-291900-
CENTRAL WISCONSIN

CITY           SKY/WX    TMP DP  RH WIND       PRES   REMARKS
MEDFORD          N/A     76  52  43 W22G31    29.88S
WAUSAU           N/A     81  47  30 W25G39    29.87S
MOSINEE        SUNNY     79  48  34 W25G37    29.90S
MARSHFIELD       N/A     80  47  31 W25G35    29.91S
WISC RAPIDS      N/A     82  47  29 W17G32    29.93F
STEVENS POINT    N/A     78  50  36 W16G24    29.91S
WAUPACA        SUNNY     83  47  28 W17G26    29.90F
SHAWANO        SUNNY     82  50  32 W17G29    29.87S
CLINTONVILLE   SUNNY     81  45  28 W18G32    29.88S
$$

WIZ038-039-048-051-291900-
FOX VALLEY

CITY           SKY/WX    TMP DP  RH WIND       PRES   REMARKS
NWS GREEN BAY  SUNNY     83  52  34 W18G32    29.87S
APPLETON       MOSUNNY   81  46  30 W20G29    29.91S
OSHKOSH        SUNNY     82  51  34 W15G25    29.91S
FOND DU LAC    SUNNY     83  50  31 W16G26    29.93S
$$

WIZ022-050-052-291900-
EAST CENTRAL WISCONSIN

CITY           SKY/WX    TMP DP  RH WIND       PRES   REMARKS
STURGEON BAY   SUNNY     81  52  36 W21G29    29.86S
MANITOWOC      SUNNY     83  50  31 MISG      29.89S
SHEBOYGAN      MOSUNNY   83  53  35 W16G29    29.91F
$$

LMZ563-521-522-541>543-291900-
LAKESHORE

STATION/POSITION TIME  TEMP    WIND        PRES    VSBY  WAVE
                       AIR SEA DIR/SP/G                  HT/PER
                 (UTC) (F)     (DEG/KT/KT) (MB)    (MI)  (FT/S)
SHEBOYGAN LKSHOR 1800   81     240/ 16/ 21 1012.6F
KEWAUNEE LKSHORE 1700   80     250/ 13/ 22 1010.9F
ALGOMA MARINA    1742          290/ 20/ 28   N/A
NORTHPORT PIER   1700   80     230/  7/ 19 1009.1F
N MID LAKE BUOY  1750   73 70  210/ 17/ 19 1008.7F         2/ 4
SISTER BAY LKSHO 1714   79     250/ 20/ 23   N/A
CHAMBERS ISLAND  1700   78     210/ 10/ 17 1009.1F
MENOMINEE LKSHOR 1700   79     250/ 22/ 27 1010.5F
$$


USA.gov is the U.S. government's official web portal to all federal, state and local government web resources and services.